Tracking 30995 objects as of 6-Jul-2025
HD Live streaming from Space Station
objects crossing your sky now

ONEWEB-0549

Track ONEWEB-0549 now!
10-day predictions
ONEWEB-0549 is classified as:


NORAD ID: 56051
Int'l Code: 2023-043F
Perigee: 1,183.2 km
Apogee: 1,186.6 km
Inclination: 87.9 °
Period: 108.9 minutes
Semi major axis: 7555 km
RCS: Unknown
Launch date: March 26, 2023
Source: United Kingdom (UK)
Launch site: SRIHARIKOTA (SRI)
Your satellite tracking list
Your tracking list is empty




NASA's NSSDC Master Catalog

Two Line Element Set (TLE):
1 56051U 23043F   25186.85402074  .00000092  00000-0  19129-3 0  9997
2 56051  87.9275 313.0701 0002227  94.4899 265.6489 13.21827749112477
Source of the keplerian elements: AFSPC